Miscellaneous Local Product
Issued by NWS Hastings, NE

Home | Current Version | Previous Version | Graphics & Text | Print | Product List | Glossary On
Versions: 1 2 3 4 5 6 7 8 9 10 11 12 13 14 15 16 17 18 19 20 21 22 23 24 25 26 27 28 29 30 31 32 33 34 35 36 37 38 39 40 41 42 43 44 45 46 47 48 49 50
103
AXUS43 KGID 240302
MISGRI

GID CWA HOURLY WEATHER ROUNDUP
NATIONAL WEATHER SERVICE HASTINGS NE
1000 PM CDT FRI SEP 23 2016

NOTE: "FAIR" INDICATES FEW OR NO CLOUDS BELOW 12,000 FEET WITH NO
SIGNIFICANT WEATHER AND/OR OBSTRUCTIONS TO VISIBILITY.

...SOUTH CENTRAL NEBRASKA...

CITY           SKY/WX    TMP DP  RH WIND       PRES   REMARKS
GRAND ISLAND   CLEAR     76  61  59 SE18G26   29.89R
HASTINGS       CLEAR     76  61  59 SE15G25   29.89S
KEARNEY        CLEAR     75  61  60 SE15      29.86S
ORD            LGT RAIN  75  58  55 SE13      29.84R
YORK           CLEAR     75  63  64 S13G18    29.91S
AURORA         CLEAR     74  62  67 SE12      29.90R
LEXINGTON      CLEAR     75  60  58 SE17      29.84R
HOLDREGE       CLEAR     73  59  62 SE15      29.86S
HEBRON         CLEAR     74  63  67 SE9       29.92R

...NEBRASKA PANHANDLE...

CITY           SKY/WX    TMP DP  RH WIND       PRES   REMARKS
CHADRON        TSTM      56  48  74 W12G17    29.89R
ALLIANCE       CLOUDY    56  48  74 NW10      29.86R
SCOTTSBLUFF    TSTM      54  47  77 W10       29.89R
SIDNEY         TSTM      54  49  83 N21       29.87R

...WESTERN AND NORTH CENTRAL NEBRASKA...

CITY           SKY/WX    TMP DP  RH WIND       PRES   REMARKS
VALENTINE      CLEAR     77  52  41 S22G35    29.75R
AINSWORTH      CLEAR     75  58  54 SE18G25   29.79R
ONEILL         CLEAR     76  56  49 SE15      29.85R
BROKEN BOW     CLEAR     74  59  59 SE17      29.84R
IMPERIAL       CLEAR     76  54  46 SE17      29.79R
NORTH PLATTE   CLEAR     79  55  43 S17G26    29.80R
MCCOOK         CLEAR     77  56  48 S20G28    29.81R

...EASTERN NEBRASKA...

CITY           SKY/WX    TMP DP  RH WIND       PRES   REMARKS
NORFOLK        CLEAR     75  59  57 SE10      29.90R
SO SIOUX CITY  CLEAR     75  62  64 SE12      29.92R
TEKAMAH        CLEAR     72  62  71 SE9       29.93R
COLUMBUS       CLEAR     75  57  53 SE9       29.92R
ALBION         CLEAR     74  61  63 SE10      29.89R
OMAHA EPPLEY   CLEAR     78  63  59 S15       29.95R
OFFUTT AFB     CLEAR     74  64  69 SE8       29.95R
MILLARD        CLEAR     76  64  67 SE6       29.94S
LINCOLN        CLEAR     78  64  61 S13       29.93R
NEBRASKA CITY  CLEAR     72  56  56 SE6       29.97R
BEATRICE       CLEAR     76  64  66 SE9       29.94S
FALLS CITY     CLEAR     73  65  75 SE8       29.96R

...NORTHERN KANSAS...

CITY           SKY/WX    TMP DP  RH WIND       PRES   REMARKS
GOODLAND       CLEAR     73  55  53 SE20G31   29.82R
HILL CITY      CLEAR     75  59  57 SE12      29.85S
NORTON         CLEAR     75  52  43 SE13G20   29.84S
PHILLIPSBURG   CLEAR     73  61  64 E8        29.87S
SMITH CENTER   CLEAR     73  61  64 SE17G25   29.89R
HAYS           CLEAR     75  55  50 SE9       29.88R
CONCORDIA      PTCLDY    74  65  73 SE13      29.92R
SALINA         MOCLDY    79  64  60 SE15      29.91R
TOPEKA         CLEAR     73  66  78 SE7       29.97R



USA.gov is the U.S. government's official web portal to all federal, state and local government web resources and services.